Location: Fort Worth, Tx
(32.7431°N, 97.3695°W)
Time: 11:07:09
(UTC-04:00)

Tiros 1 - Pass Details

Date: 01 March 2024
Orbit: 625 x 657 km, 48.4° (Epoch: 24 April)

Event Time Altitude Azimuth Distance (km) Brightness Sun altitude
Rises 22:11:37 0° 292° (WNW) 2,973 11.6 -35.1°
Reaches altitude 10° 22:15:10 10° 319° (NW) 2,067 10.3 -35.8°
Enters shadow 22:16:19 12° 333° (NNW) 1,905 9.9 -36.0°
